Location: Borojevi?i
(45.0486°N, 16.2297°E)
Time: 05:57:07
(UTC+00:00)

ERBS - Pass Details

Date: 08 August 2020
Orbit: 413 x 420 km, 57.0° (Epoch: 23 September)

Event Time Altitude Azimuth Distance (km) Brightness Sun altitude
Rises 18:55:54 0° 248° (WSW) 2,350 6.6 -7.7°
Reaches altitude 10° 18:58:04 10° 256° (WSW) 1,488 5.7 -8.1°
Maximum altitude 19:01:12 38° 326° (NNW) 657 3.9 -8.5°
Drops below altitude 10° 19:04:20 10° 37° (NE) 1,492 5.0 -9.0°
Sets 19:06:31 0° 46° (NE) 2,357 5.9 -9.3°
